Regional Weather Roundup
Issued by NWS Mobile, AL

Home | Current Version | Previous Version | Text Only | Print | Product List | Glossary On
Versions: 1 2 3 4 5 6 7 8 9 10 11 12 13 14 15 16 17 18 19 20 21 22 23 24 25 26 27
000
ASUS44 KMOB 161912
RWRMOB
REGIONAL WEATHER ROUNDUP
NATIONAL WEATHER SERVICE MOBILE AL
100 PM CST MON JAN 16 2017

NOTE: "FAIR" INDICATES FEW OR NO CLOUDS BELOW 12,000 FEET WITH NO
      SIGNIFICANT WEATHER AND/OR OBSTRUCTIONS TO VISIBILITY.

  * THESE STATIONS ARE PART OF THE UNIVERSITY OF SOUTH ALABAMA
    MESONET AND ARE NOT UNDER NWS OR FAA QUALITY CONTROL.

ALZ061>064-162000-
COASTAL ALABAMA

CITY           SKY/WX    TMP DP  RH WIND       PRES   REMARKS
MOBILE REG APT PTSUNNY   76  61  59 SE14G20   30.17F
BROOKLEY FIELD MOSUNNY   75  66  73 SE15G22   30.18F
USA CAMPUS*      N/A     75  63  64 SE7       30.16F
DOG RIVER*       N/A     73  66  78 SE7       30.97F


CITY           SKY/WX    TMP DP  RH WIND       PRES   REMARKS
GULF SHORES    SUNNY     76  67  75 SE14G21   30.18F

$$

ALZ051>060-162000-
INTERIOR SOUTHWEST AND SOUTH CENTRAL ALABAMA

CITY           SKY/WX    TMP DP  RH WIND       PRES   REMARKS
GREENVILLE     PTSUNNY   76  52  43 S10       30.19F
EVERGREEN      PTSUNNY   77  57  50 S9        30.19F
ATMORE*          N/A     73  63  68 S13       30.19F
ANDALUSIA/OPP  PTSUNNY   80  56  43 S8        30.19F
ANDALUSIA*       N/A     77  57  50 S9        30.19F
FLORALA APT    PTSUNNY   75  57  53 S9        30.21F
FLORALA*         N/A     79  59  50 CALM      30.96F

$$

FLZ001>006-162000-
WESTERN FLORIDA PANHANDLE

CITY           SKY/WX    TMP DP  RH WIND       PRES   REMARKS
PENSACOLA      MOSUNNY   74  64  71 SE12G25   30.19F
NAS PENSACOLA  SUNNY     75  66  73 E15       30.18F
MILTON           N/A    N/A N/A N/A MISG      30.19F
WHTNG S FIELD  PTSUNNY   81  62  52 S12G22    30.19F


CITY           SKY/WX    TMP DP  RH WIND       PRES   REMARKS
JAY*             N/A     77  59  53 S14       30.19F
DUKE FIELD     MOSUNNY   74  62  66 S13       30.19F
CRESTVIEW      PTSUNNY   74  62  66 S8        30.22F
VALPARAISO     PTSUNNY   72  63  73 SE10      30.21F
DESTIN         MOSUNNY   73  65  75 SE13      30.20F

$$

MSZ076-079-162000-
INTERIOR SOUTHEAST MISSISSIPPI

CITY           SKY/WX    TMP DP  RH WIND       PRES   REMARKS
LEAKESVILLE*   NOT AVBL
AGRICOLA*      NOT AVBL

$$

MARINE OBSERVATIONS

STATION/POSITION TIME  TEMP    WIND        PRES    WAVE
                       AIR SEA DIR/SP/G            HT/PER
                 (UTC) (F)     (DEG/KT/KT) (MB)    (FT/S)
PASCAGOULA       1830   72     120/  9/ 13 1021.5F
PETIT BOIS ISLND 1830   69      90/  6/ 11 1022.2F
GRAND BAY        1730   69     120/  9     1024.0S
KATRINA CUT      1800          110/ 11     1022.4
CEDAR POINT      1830   67     110/  6     1022.0F
E DAUPHIN ISLAND 1800   68     100/  9/  9 1022.1F
MIDDLE BAY LIGHT 1800   67     130/ 12     1022.0
USCG MOBILE BAY  1830   70 60  170/  7/ 11 1022.7F
STATE DOCKS      1830   72 58              1022.1F
MEAHER PARK      1830   69     180/  8     1022.4F
WEEKS BAY        1730   77                   N/A
FORT MORGAN      1830   70     120/ 12/ 15   N/A
12 S ORANGE BCH  1750   69 65  130/  8/  8 1022.6F   4/ 7
PENSACOLA BAY    1830   75 62  100/  2/  6 1022.8F
67 S FORT MORGAN 1830   72                 1021.0F

$$

SELECTED LOCATIONS ACROSS THE REGION

CITY           SKY/WX    TMP DP  RH WIND       PRES   REMARKS
NEW ORLEANS    PTSUNNY   77  65  66 S14       30.11F
GULFPORT       PTSUNNY   75  65  70 SE12      30.15F
PASCAGOULA AP  SUNNY     77  61  57 SE13G21   30.16F
PASCAGOULA*    NOT AVBL
HATTIESBURG    CLOUDY    78  59  51 S15       30.14F
LAUREL         CLOUDY    73  59  60 S10G18    30.15F
MERIDIAN       CLOUDY    76  60  57 S15       30.14F
JACKSON        CLOUDY    74  61  63 S15G21    30.09F
MONTGOMERY     CLOUDY    78  51  38 S6        30.20F
TROY           CLOUDY    74  55  51 SE9       30.21F
ASHFORD*         N/A     77  57  50 S9        30.19F
DOTHAN         MOSUNNY   77  56  48 S9        30.25F
PANAMA CITY    MOSUNNY   76  58  53 SE14      30.21F

$$





USA.gov is the U.S. government's official web portal to all federal, state and local government web resources and services.